FW7873 Weather Reports


time (UTC)temp
F
wind
direction
speed
knots
gust
knots
rain 1hr
in
rain 24hr
in
rain mn
in
humidity
%
barometer
mb
20260509000056 61 211 1.7 7.0 0.00 0.00 0.00 38 1007.0
20260508234559 61 0 0.9 7.8 0.00 0.00 0.00 41 1007.1
20260508233110 61 271 1.7 6.1 0.00 0.00 0.00 40 1007.1
20260508231559 62 261 0.9 11.3 0.00 0.00 0.00 40 1007.0
20260508230104 62 252 3.5 10.4 0.00 0.00 0.00 39 1007.1
20260508224611 63 271 3.5 8.7 0.00 0.00 0.00 38 1007.1
20260508223102 63 286 0.9 5.2 0.00 0.00 0.00 38 1007.2
20260508221559 63 304 1.7 7.0 0.00 0.00 0.00 39 1007.4
20260508220100 64 0 3.5 9.6 0.00 0.00 0.00 38 1007.4
20260508214608 64 289 1.7 9.6 0.00 0.00 0.00 36 1007.4
20260508213058 65 28 2.6 9.6 0.00 0.00 0.00 37 1007.5
20260508211555 66 267 6.1 13.0 0.00 0.00 0.00 37 1007.6
20260508210107 66 256 4.3 10.4 0.00 0.00 0.00 33 1007.8
20260508204558 64 138 1.7 7.8 0.00 0.00 0.00 33 1007.8
20260508203102 65 316 1.7 7.8 0.00 0.00 0.00 39 1007.9
20260508201556 66 235 2.6 7.8 0.00 0.00 0.00 37 1008.2
20260508200100 65 286 2.6 9.6 0.00 0.00 0.00 40 1008.6
20260508194559 64 227 2.6 13.9 0.00 0.00 0.00 40 1008.6
20260508193113 65 312 2.6 9.6 0.00 0.00 0.00 39 1008.9
20260508191613 66 313 3.5 10.4 0.00 0.00 0.00 38 1009.2
20260508190054 64 264 0.9 9.6 0.00 0.00 0.00 41 1009.4
20260508184557 63 181 2.6 8.7 0.00 0.00 0.00 38 1009.6
20260508183057 63 314 4.3 13.9 0.00 0.00 0.00 35 1009.9
20260508181554 63 211 2.6 9.6 0.00 0.00 0.00 39 1010.0
20260508180058 63 184 1.7 9.6 0.00 0.00 0.00 38 1010.1
20260508174557 61 216 3.5 10.4 0.00 0.00 0.00 36 1010.4
20260508173056 62 355 2.6 7.0 0.00 0.00 0.00 38 1010.8
20260508171607 61 250 3.5 7.8 0.00 0.00 0.00 39 1010.9
20260508170100 60 80 1.7 10.4 0.00 0.00 0.00 40 1011.2
20260508164557 59 270 1.7 7.8 0.00 0.00 0.00 39 1011.3
20260508163100 59 284 2.6 7.8 0.00 0.00 0.00 42 1011.5
20260508161607 58 277 2.6 9.6 0.00 0.00 0.00 46 1011.5
20260508160100 57 266 0.9 6.1 0.00 0.00 0.00 47 1011.9
20260508154601 56 292 0.9 5.2 0.00 0.00 0.00 51 1011.9
20260508153058 55 161 2.6 9.6 0.00 0.00 0.00 50 1012.0
20260508151557 54 259 0.0 4.3 0.00 0.00 0.00 56 1012.0
20260508150057 53 360 0.9 3.5 0.00 0.00 0.00 55 1012.1
20260508144559 53 0 0.9 4.3 0.00 0.00 0.00 58 1012.3
20260508143104 52 11 0.9 4.3 0.00 0.00 0.00 61 1012.4
20260508141557 51 331 0.9 6.1 0.00 0.00 0.00 59 1012.5
20260508134601 49 170 1.7 5.2 0.00 0.00 0.00 74 1012.7
20260508133100 48 121 0.9 2.6 0.00 0.00 0.00 80 1012.7
20260508131602 46 207 0.9 7.0 0.00 0.00 0.00 83 1012.7
20260508130111 45 0 0.9 4.3 0.00 0.00 0.00 87 1012.8
20260508124559 44 360 0.9 3.5 0.00 0.00 0.00 89 1012.7
20260508123103 43 156 0.9 5.2 0.00 0.00 0.00 91 1012.6
20260508121607 41 134 1.7 3.5 0.00 0.00 0.00 92 1012.5
20260508120059 40 202 0.9 2.6 0.00 0.00 0.00 92 1012.5
20260508114557 39 0 0.0 0.9 0.00 0.00 0.00 91 1012.3
20260508113102 38 0 0.0 1.7 0.00 0.00 0.00 91 1012.1
20260508111601 38 0 0.9 1.7 0.00 0.00 0.00 90 1011.9
20260508110101 37 0 0.0 0.0 0.00 0.00 0.00 89 1011.7
20260508104624 37 0 0.0 0.0 0.00 0.00 0.00 89 1011.6
20260508103057 37 0 0.0 0.0 0.00 0.00 0.00 88 1011.6
20260508101557 38 0 0.0 0.0 0.00 0.00 0.00 88 1011.6
20260508100059 38 0 0.0 0.0 0.00 0.00 0.00 87 1011.6
20260508094559 38 0 0.0 0.0 0.00 0.00 0.00 87 1011.6
20260508093101 39 0 0.0 0.0 0.00 0.00 0.00 86 1011.7
20260508091614 39 0 0.0 0.0 0.00 0.00 0.00 86 1011.8
20260508090109 40 0 0.0 0.0 0.00 0.00 0.00 85 1011.9
20260508084557 40 0 0.0 0.0 0.00 0.00 0.00 84 1011.8
20260508083111 41 0 0.0 0.0 0.00 0.00 0.00 84 1011.8
20260508081601 41 0 0.0 0.0 0.00 0.00 0.00 83 1011.9
20260508080109 42 0 0.0 0.0 0.00 0.00 0.00 81 1011.9
20260508074556 43 0 0.0 0.0 0.00 0.00 0.00 81 1012.0
20260508073057 44 0 0.0 1.7 0.00 0.00 0.00 80 1011.9
20260508071602 44 0 0.0 0.9 0.00 0.00 0.00 80 1012.0
20260508070140 44 0 0.0 2.6 0.00 0.00 0.00 79 1012.1
20260508064608 44 0 0.0 1.7 0.00 0.00 0.00 79 1012.0
20260508063053 44 263 0.0 2.6 0.00 0.00 0.00 78 1012.1
20260508061603 45 0 0.0 2.6 0.00 0.00 0.00 78 1012.1
20260508060057 45 0 0.9 2.6 0.00 0.00 0.00 77 1012.2
20260508054554 44 0 0.0 1.7 0.00 0.00 0.00 76 1012.2
20260508053104 44 0 0.0 1.7 0.00 0.00 0.00 75 1012.2
20260508051554 44 0 0.0 0.0 0.00 0.00 0.00 73 1012.2
20260508050100 45 0 0.0 0.9 0.00 0.00 0.00 71 1012.3
20260508044554 46 0 0.0 1.7 0.00 0.00 0.00 69 1012.3
20260508043104 46 0 0.0 0.9 0.00 0.00 0.00 68 1012.2
20260508041557 47 0 0.0 4.3 0.00 0.00 0.00 65 1012.3
20260508040100 48 277 0.0 1.7 0.00 0.00 0.00 63 1012.3
20260508034556 48 0 1.7 5.2 0.00 0.00 0.00 63 1012.4
20260508033057 48 352 0.9 2.6 0.00 0.00 0.00 67 1012.3
20260508031558 48 360 0.0 1.7 0.00 0.00 0.00 65 1012.1
20260508030103 49 0 0.0 2.6 0.00 0.00 0.00 63 1012.1
20260508024603 49 173 0.9 3.5 0.00 0.00 0.00 59 1012.1
20260508023059 49 292 0.0 3.5 0.00 0.00 0.00 57 1012.5
20260508021559 50 219 0.0 2.6 0.00 0.00 0.00 56 1012.5
20260508020100 50 211 1.7 5.2 0.00 0.00 0.00 55 1012.2
20260508014556 50 205 0.0 4.3 0.00 0.00 0.00 55 1012.3
20260508013107 49 0 0.0 3.5 0.00 0.00 0.00 56 1012.1
20260508011557 50 0 0.0 2.6 0.00 0.00 0.00 55 1012.0
20260508004604 50 308 0.0 4.3 0.00 0.00 0.00 54 1011.8
20260508003059 51 360 0.0 4.3 0.00 0.00 0.00 52 1011.8
20260508001556 51 0 0.9 3.5 0.00 0.00 0.00 50 1011.8